| time (UTC) | temp F | wind direction | speed knots | gust knots | rain 1hr in | rain 24hr in | rain mn in | humidity % | barometer mb |
| 20260507010426 | 51 | 86 | 0.0 | 0.0 | 0.00 | 0.25 | 0.25 | 71 | 1010.7 |
| 20260507005923 | 51 | 85 | 0.0 | 0.0 | 0.00 | 0.25 | 0.25 | 70 | 1011.1 |
| 20260507005421 | 51 | 85 | 0.0 | 0.0 | 0.00 | 0.25 | 0.25 | 69 | 1010.7 |
| 20260507004917 | 51 | 85 | 0.0 | 0.0 | 0.00 | 0.25 | 0.25 | 69 | 1010.7 |
| 20260507004414 | 52 | 85 | 0.0 | 0.0 | 0.00 | 0.25 | 0.25 | 68 | 1010.7 |
| 20260507003912 | 52 | 85 | 0.0 | 0.0 | 0.00 | 0.25 | 0.25 | 66 | 1010.7 |
| 20260507003406 | 52 | 85 | 0.0 | 0.0 | 0.00 | 0.25 | 0.25 | 66 | 1010.4 |
| 20260507002902 | 52 | 85 | 0.0 | 0.0 | 0.00 | 0.25 | 0.25 | 65 | 1010.4 |
| 20260507002358 | 52 | 85 | 0.0 | 0.0 | 0.00 | 0.25 | 0.25 | 66 | 1010.4 |
| 20260507001856 | 53 | 85 | 0.0 | 0.0 | 0.00 | 0.25 | 0.25 | 64 | 1010.4 |
| 20260507001352 | 53 | 75 | 0.0 | 0.0 | 0.00 | 0.25 | 0.25 | 64 | 1010.4 |
| 20260507000849 | 53 | 85 | 0.0 | 0.0 | 0.00 | 0.25 | 0.25 | 61 | 1010.0 |
| 20260507000344 | 53 | 98 | 0.9 | 1.7 | 0.00 | 0.25 | 0.25 | 62 | 1010.4 |
| 20260506235841 | 53 | 85 | 0.0 | 0.0 | 0.00 | 0.25 | 0.25 | 62 | 1010.0 |
| 20260506235338 | 54 | 84 | 0.0 | 0.0 | 0.00 | 0.25 | 0.25 | 60 | 1010.4 |
| 20260506234834 | 54 | 84 | 0.9 | 0.9 | 0.00 | 0.25 | 0.25 | 59 | 1010.4 |
| 20260506234332 | 54 | 84 | 0.0 | 0.0 | 0.00 | 0.25 | 0.25 | 57 | 1010.4 |
| 20260506233830 | 54 | 90 | 0.9 | 1.7 | 0.00 | 0.25 | 0.25 | 56 | 1010.0 |
| 20260506233325 | 54 | 96 | 0.0 | 0.9 | 0.00 | 0.25 | 0.25 | 57 | 1010.0 |
| 20260506232822 | 55 | 64 | 0.0 | 0.0 | 0.00 | 0.25 | 0.25 | 59 | 1010.0 |
| 20260506232317 | 55 | 83 | 0.0 | 0.9 | 0.00 | 0.25 | 0.25 | 60 | 1010.4 |
| 20260506231814 | 54 | 63 | 0.0 | 0.0 | 0.00 | 0.25 | 0.25 | 57 | 1010.4 |
| 20260506231313 | 55 | 114 | 0.0 | 0.9 | 0.00 | 0.25 | 0.25 | 57 | 1010.7 |
| 20260506230810 | 55 | 95 | 0.9 | 1.7 | 0.00 | 0.25 | 0.25 | 56 | 1010.4 |
| 20260506230306 | 55 | 91 | 0.9 | 0.9 | 0.00 | 0.25 | 0.25 | 56 | 1010.7 |
| 20260506225802 | 55 | 78 | 0.0 | 0.0 | 0.00 | 0.25 | 0.25 | 55 | 1010.7 |
| 20260506225300 | 55 | 72 | 0.9 | 0.9 | 0.00 | 0.25 | 0.25 | 56 | 1010.7 |
| 20260506224756 | 55 | 87 | 0.0 | 0.0 | 0.00 | 0.25 | 0.25 | 58 | 1010.7 |
| 20260506224254 | 56 | 164 | 1.7 | 1.7 | 0.00 | 0.25 | 0.25 | 57 | 1010.4 |
| 20260506223750 | 56 | 78 | 0.0 | 0.9 | 0.00 | 0.25 | 0.25 | 59 | 1010.4 |
| 20260506223245 | 55 | 79 | 0.0 | 0.0 | 0.00 | 0.25 | 0.25 | 59 | 1010.7 |
| 20260506222742 | 55 | 87 | 0.0 | 0.0 | 0.00 | 0.25 | 0.25 | 59 | 1010.7 |
| 20260506222238 | 55 | 76 | 0.0 | 0.0 | 0.00 | 0.25 | 0.25 | 59 | 1010.7 |
| 20260506221736 | 55 | 80 | 0.0 | 0.0 | 0.00 | 0.25 | 0.25 | 59 | 1010.7 |
| 20260506221234 | 56 | 80 | 1.7 | 2.6 | 0.00 | 0.25 | 0.25 | 57 | 1010.4 |
| 20260506220732 | 56 | 76 | 1.7 | 2.6 | 0.00 | 0.25 | 0.25 | 57 | 1010.4 |
| 20260506220231 | 56 | 139 | 1.7 | 1.7 | 0.00 | 0.25 | 0.25 | 57 | 1010.4 |
| 20260506215729 | 56 | 148 | 0.9 | 0.9 | 0.00 | 0.25 | 0.25 | 57 | 1010.0 |
| 20260506215224 | 56 | 138 | 0.9 | 1.7 | 0.00 | 0.25 | 0.25 | 55 | 1010.4 |
| 20260506214721 | 56 | 72 | 0.0 | 0.0 | 0.00 | 0.25 | 0.25 | 56 | 1010.0 |
| 20260506214218 | 56 | 92 | 1.7 | 1.7 | 0.00 | 0.25 | 0.25 | 55 | 1010.0 |
| 20260506213716 | 56 | 126 | 0.0 | 0.9 | 0.00 | 0.25 | 0.25 | 57 | 1010.0 |
| 20260506213213 | 56 | 40 | 0.9 | 1.7 | 0.00 | 0.25 | 0.25 | 56 | 1010.0 |
| 20260506212710 | 56 | 80 | 0.9 | 0.9 | 0.00 | 0.25 | 0.25 | 57 | 1009.6 |
| 20260506212206 | 56 | 73 | 0.0 | 0.0 | 0.00 | 0.25 | 0.25 | 59 | 1009.6 |
| 20260506211701 | 57 | 47 | 0.0 | 0.0 | 0.00 | 0.25 | 0.25 | 57 | 1010.0 |
| 20260506211158 | 57 | 86 | 0.9 | 1.7 | 0.00 | 0.25 | 0.25 | 56 | 1010.0 |
| 20260506210655 | 57 | 219 | 0.9 | 1.7 | 0.00 | 0.25 | 0.25 | 55 | 1010.0 |
| 20260506210151 | 56 | 30 | 0.9 | 1.7 | 0.00 | 0.25 | 0.25 | 56 | 1009.6 |
| 20260506205649 | 56 | 85 | 0.0 | 0.9 | 0.00 | 0.25 | 0.25 | 57 | 1010.0 |
| 20260506205144 | 57 | 79 | 0.0 | 0.0 | 0.00 | 0.25 | 0.25 | 58 | 1010.0 |
| 20260506204642 | 56 | 84 | 0.0 | 0.0 | 0.00 | 0.25 | 0.25 | 57 | 1010.0 |
| 20260506204138 | 56 | 81 | 0.9 | 2.6 | 0.00 | 0.25 | 0.25 | 58 | 1009.6 |
| 20260506203636 | 57 | 102 | 0.9 | 0.9 | 0.00 | 0.25 | 0.25 | 59 | 1009.6 |
| 20260506203133 | 57 | 208 | 0.9 | 0.9 | 0.00 | 0.25 | 0.25 | 57 | 1009.6 |
| 20260506202631 | 57 | 199 | 0.9 | 1.7 | 0.00 | 0.25 | 0.25 | 56 | 1009.6 |
| 20260506202127 | 57 | 201 | 1.7 | 2.6 | 0.00 | 0.25 | 0.25 | 54 | 1009.3 |
| 20260506201624 | 57 | 99 | 0.0 | 0.0 | 0.00 | 0.25 | 0.25 | 56 | 1009.3 |
| 20260506201120 | 57 | 71 | 0.0 | 0.0 | 0.00 | 0.25 | 0.25 | 61 | 1009.6 |
| 20260506200617 | 57 | 88 | 0.9 | 1.7 | 0.00 | 0.25 | 0.25 | 57 | 1009.6 |
| 20260506200114 | 57 | 92 | 0.9 | 1.7 | 0.00 | 0.25 | 0.25 | 55 | 1009.6 |
| 20260506195610 | 57 | 78 | 0.9 | 0.9 | 0.00 | 0.25 | 0.25 | 57 | 1009.3 |
| 20260506195107 | 57 | 116 | 1.7 | 1.7 | 0.00 | 0.25 | 0.25 | 57 | 1009.3 |
| 20260506194605 | 56 | 154 | 2.6 | 4.3 | 0.00 | 0.25 | 0.25 | 56 | 1009.6 |
| 20260506194101 | 56 | 71 | 1.7 | 2.6 | 0.00 | 0.25 | 0.25 | 57 | 1009.6 |
| 20260506193559 | 57 | 87 | 1.7 | 1.7 | 0.00 | 0.25 | 0.25 | 57 | 1009.3 |
| 20260506193056 | 57 | 81 | 0.0 | 0.0 | 0.00 | 0.25 | 0.25 | 58 | 1010.0 |
| 20260506192552 | 57 | 60 | 0.9 | 1.7 | 0.00 | 0.25 | 0.25 | 55 | 1009.6 |
| 20260506192048 | 57 | 79 | 0.0 | 0.0 | 0.00 | 0.25 | 0.25 | 57 | 1009.6 |
| 20260506191545 | 58 | 114 | 1.7 | 1.7 | 0.00 | 0.25 | 0.25 | 54 | 1009.6 |
| 20260506191041 | 58 | 144 | 1.7 | 2.6 | 0.00 | 0.25 | 0.25 | 56 | 1009.3 |
| 20260506190538 | 59 | 67 | 0.9 | 0.9 | 0.00 | 0.25 | 0.25 | 53 | 1009.3 |
| 20260506190035 | 60 | 57 | 0.0 | 0.9 | 0.00 | 0.25 | 0.25 | 52 | 1009.3 |
| 20260506185532 | 60 | 70 | 0.0 | 0.9 | 0.00 | 0.25 | 0.25 | 56 | 1009.3 |
| 20260506185029 | 60 | 64 | 0.0 | 0.0 | 0.00 | 0.25 | 0.25 | 59 | 1009.3 |
| 20260506184527 | 60 | 26 | 2.6 | 2.6 | 0.00 | 0.25 | 0.25 | 56 | 1009.3 |
| 20260506184024 | 60 | 169 | 0.9 | 1.7 | 0.00 | 0.25 | 0.25 | 55 | 1009.3 |
| 20260506183519 | 60 | 70 | 0.0 | 0.9 | 0.00 | 0.25 | 0.25 | 57 | 1009.6 |
| 20260506183016 | 60 | 56 | 0.9 | 1.7 | 0.00 | 0.25 | 0.25 | 57 | 1009.3 |
| 20260506182514 | 59 | 90 | 0.9 | 0.9 | 0.00 | 0.25 | 0.25 | 55 | 1009.3 |
| 20260506182011 | 60 | 71 | 0.0 | 0.9 | 0.00 | 0.25 | 0.25 | 55 | 1009.6 |
| 20260506181508 | 61 | 207 | 0.9 | 2.6 | 0.00 | 0.25 | 0.25 | 55 | 1009.6 |
| 20260506181005 | 62 | 60 | 1.7 | 2.6 | 0.00 | 0.25 | 0.25 | 51 | 1009.3 |
| 20260506180502 | 60 | 109 | 0.9 | 0.9 | 0.00 | 0.25 | 0.25 | 52 | 1009.3 |
| 20260506175958 | 60 | 114 | 0.9 | 1.7 | 0.00 | 0.25 | 0.25 | 52 | 1009.6 |
| 20260506175455 | 59 | 75 | 0.0 | 0.0 | 0.00 | 0.25 | 0.25 | 52 | 1009.6 |
| 20260506174951 | 60 | 184 | 0.0 | 0.9 | 0.00 | 0.25 | 0.25 | 55 | 1009.6 |
| 20260506174450 | 60 | 88 | 0.0 | 0.0 | 0.00 | 0.25 | 0.25 | 54 | 1009.6 |
| 20260506173946 | 60 | 83 | 0.9 | 1.7 | 0.00 | 0.25 | 0.25 | 55 | 1009.6 |
| 20260506173444 | 61 | 168 | 1.7 | 1.7 | 0.00 | 0.25 | 0.25 | 57 | 1009.6 |
| 20260506172940 | 60 | 75 | 0.0 | 0.0 | 0.00 | 0.25 | 0.25 | 56 | 1009.6 |
| 20260506172438 | 60 | 177 | 0.9 | 1.7 | 0.00 | 0.25 | 0.25 | 54 | 1009.3 |
| 20260506171934 | 59 | 7 | 0.0 | 0.9 | 0.00 | 0.25 | 0.25 | 55 | 1009.6 |
| 20260506171431 | 58 | 99 | 0.9 | 0.9 | 0.00 | 0.25 | 0.25 | 57 | 1009.3 |
| 20260506170929 | 59 | 90 | 0.0 | 0.9 | 0.00 | 0.25 | 0.25 | 53 | 1009.3 |
| 20260506170425 | 60 | 54 | 0.9 | 0.9 | 0.00 | 0.25 | 0.25 | 59 | 1009.3 |
| 20260506165924 | 59 | 84 | 0.0 | 0.9 | 0.00 | 0.25 | 0.25 | 63 | 1009.3 |
| 20260506165422 | 59 | 157 | 1.7 | 2.6 | 0.00 | 0.25 | 0.25 | 59 | 1009.6 |
| 20260506164918 | 60 | 227 | 1.7 | 1.7 | 0.00 | 0.25 | 0.25 | 57 | 1009.6 |
| 20260506164415 | 58 | 104 | 1.7 | 2.6 | 0.00 | 0.25 | 0.25 | 59 | 1009.6 |
| 20260506163913 | 57 | 69 | 0.0 | 0.0 | 0.00 | 0.25 | 0.25 | 64 | 1009.6 |
| 20260506163407 | 57 | 167 | 0.9 | 0.9 | 0.00 | 0.25 | 0.25 | 61 | 1009.3 |
| 20260506162902 | 57 | 230 | 0.9 | 1.7 | 0.00 | 0.25 | 0.25 | 63 | 1010.0 |
| 20260506162401 | 57 | 120 | 0.9 | 0.9 | 0.00 | 0.25 | 0.25 | 63 | 1010.0 |
| 20260506161858 | 58 | 78 | 0.0 | 0.9 | 0.00 | 0.25 | 0.25 | 62 | 1009.6 |
| 20260506161355 | 57 | 127 | 2.6 | 5.2 | 0.00 | 0.25 | 0.25 | 63 | 1009.6 |
| 20260506160853 | 56 | 77 | 0.0 | 0.0 | 0.00 | 0.25 | 0.25 | 68 | 1010.0 |
| 20260506160350 | 56 | 102 | 0.0 | 0.9 | 0.00 | 0.25 | 0.25 | 66 | 1009.6 |
| 20260506155848 | 56 | 92 | 0.9 | 0.9 | 0.00 | 0.25 | 0.25 | 66 | 1009.3 |
| 20260506155344 | 55 | 101 | 0.9 | 0.9 | 0.00 | 0.25 | 0.25 | 66 | 1009.3 |
| 20260506153456 | 54 | 183 | 0.0 | 0.9 | 0.00 | 0.25 | 0.25 | 68 | 1008.9 |
| 20260506152954 | 54 | 57 | 0.9 | 0.9 | 0.00 | 0.25 | 0.25 | 70 | 1009.3 |
| 20260506152450 | 54 | 70 | 0.9 | 0.9 | 0.00 | 0.25 | 0.25 | 70 | 1008.9 |
| 20260506151949 | 54 | 58 | 0.0 | 0.0 | 0.00 | 0.25 | 0.25 | 69 | 1009.3 |
| 20260506151446 | 53 | 32 | 0.0 | 0.9 | 0.00 | 0.25 | 0.25 | 72 | 1008.9 |
| 20260506150943 | 54 | 95 | 0.0 | 0.9 | 0.00 | 0.25 | 0.25 | 71 | 1008.9 |
| 20260506150439 | 53 | 83 | 0.9 | 0.9 | 0.00 | 0.25 | 0.25 | 71 | 1008.6 |
| 20260506145936 | 52 | 75 | 0.9 | 0.9 | 0.00 | 0.25 | 0.25 | 71 | 1008.6 |
| 20260506145432 | 52 | 127 | 0.9 | 1.7 | 0.00 | 0.25 | 0.25 | 72 | 1008.9 |
| 20260506144930 | 52 | 170 | 0.0 | 0.0 | 0.00 | 0.25 | 0.25 | 78 | 1008.6 |
| 20260506144426 | 50 | 75 | 0.0 | 0.0 | 0.00 | 0.25 | 0.25 | 80 | 1008.9 |
| 20260506143925 | 49 | 69 | 0.9 | 1.7 | 0.00 | 0.25 | 0.25 | 85 | 1008.9 |
| 20260506143421 | 48 | 75 | 0.0 | 0.0 | 0.00 | 0.25 | 0.25 | 93 | 1008.9 |
| 20260506142920 | 47 | 93 | 0.9 | 0.9 | 0.00 | 0.25 | 0.25 | 97 | 1008.6 |
| 20260506142418 | 46 | 70 | 0.0 | 0.0 | 0.00 | 0.25 | 0.25 | 99 | 1008.6 |
| 20260506141915 | 46 | 156 | 1.7 | 1.7 | 0.00 | 0.25 | 0.25 | 99 | 1008.6 |
| 20260506141413 | 46 | 69 | 0.0 | 0.0 | 0.00 | 0.25 | 0.25 | 99 | 1008.3 |
| 20260506140911 | 46 | 70 | 0.0 | 0.0 | 0.00 | 0.25 | 0.25 | 99 | 1008.3 |
| 20260506140408 | 46 | 63 | 0.9 | 0.9 | 0.00 | 0.25 | 0.25 | 99 | 1008.3 |
| 20260506135905 | 46 | 120 | 0.9 | 0.9 | 0.00 | 0.25 | 0.25 | 99 | 1008.3 |
| 20260506135402 | 46 | 65 | 0.0 | 0.9 | 0.00 | 0.25 | 0.25 | 99 | 1008.3 |
| 20260506134858 | 45 | 58 | 0.9 | 1.7 | 0.00 | 0.25 | 0.25 | 99 | 1008.3 |
| 20260506134354 | 45 | 165 | 0.9 | 1.7 | 0.00 | 0.25 | 0.25 | 99 | 1007.9 |
| 20260506133851 | 45 | 144 | 0.0 | 0.9 | 0.00 | 0.25 | 0.25 | 99 | 1008.3 |
| 20260506133348 | 45 | 76 | 0.0 | 0.9 | 0.00 | 0.25 | 0.25 | 99 | 1007.9 |
| 20260506132844 | 46 | 230 | 3.5 | 5.2 | 0.00 | 0.25 | 0.25 | 99 | 1007.9 |
| 20260506132342 | 45 | 82 | 0.0 | 0.0 | 0.00 | 0.25 | 0.25 | 99 | 1007.9 |
| 20260506131840 | 45 | 106 | 1.7 | 1.7 | 0.00 | 0.25 | 0.25 | 99 | 1007.9 |
| 20260506131336 | 45 | 68 | 0.0 | 0.0 | 0.00 | 0.25 | 0.25 | 99 | 1008.3 |
| 20260506130833 | 44 | 70 | 0.0 | 0.0 | 0.00 | 0.25 | 0.25 | 99 | 1007.9 |
| 20260506130329 | 44 | 71 | 0.0 | 0.0 | 0.00 | 0.25 | 0.25 | 99 | 1008.3 |
| 20260506125827 | 44 | 69 | 0.0 | 0.0 | 0.00 | 0.25 | 0.25 | 99 | 1007.9 |
| 20260506125326 | 45 | 95 | 0.0 | 0.9 | 0.00 | 0.25 | 0.25 | 99 | 1007.9 |
| 20260506124824 | 45 | 114 | 0.9 | 0.9 | 0.00 | 0.25 | 0.25 | 99 | 1007.9 |
| 20260506124320 | 45 | 115 | 0.9 | 0.9 | 0.00 | 0.25 | 0.25 | 99 | 1007.9 |
| 20260506123818 | 45 | 91 | 0.9 | 1.7 | 0.00 | 0.25 | 0.25 | 99 | 1007.9 |
| 20260506123316 | 45 | 73 | 0.0 | 0.0 | 0.00 | 0.25 | 0.25 | 99 | 1007.6 |
| 20260506122813 | 44 | 95 | 0.0 | 0.0 | 0.00 | 0.25 | 0.25 | 99 | 1007.3 |
| 20260506122310 | 45 | 65 | 0.0 | 0.0 | 0.00 | 0.25 | 0.25 | 99 | 1007.3 |
| 20260506121808 | 45 | 65 | 0.0 | 0.0 | 0.00 | 0.25 | 0.25 | 99 | 1007.3 |
| 20260506121305 | 44 | 87 | 0.0 | 0.0 | 0.00 | 0.25 | 0.25 | 99 | 1006.9 |
| 20260506120802 | 44 | 70 | 0.0 | 0.0 | 0.00 | 0.25 | 0.25 | 99 | 1006.9 |
| 20260506120300 | 44 | 112 | 0.0 | 0.0 | 0.00 | 0.25 | 0.25 | 99 | 1006.9 |
| 20260506115757 | 44 | 72 | 0.0 | 0.0 | 0.00 | 0.25 | 0.25 | 99 | 1006.9 |
| 20260506115255 | 44 | 67 | 0.0 | 0.0 | 0.00 | 0.25 | 0.25 | 99 | 1006.9 |
| 20260506114753 | 44 | 72 | 0.0 | 0.0 | 0.00 | 0.25 | 0.25 | 99 | 1006.9 |
| 20260506114250 | 44 | 72 | 0.0 | 0.0 | 0.00 | 0.25 | 0.25 | 99 | 1007.3 |
| 20260506113749 | 44 | 59 | 0.0 | 0.0 | 0.00 | 0.25 | 0.25 | 99 | 1006.9 |
| 20260506113246 | 45 | 206 | 1.7 | 1.7 | 0.00 | 0.25 | 0.25 | 99 | 1006.6 |
| 20260506112742 | 45 | 67 | 0.0 | 0.0 | 0.00 | 0.25 | 0.25 | 99 | 1006.6 |
| 20260506112240 | 45 | 57 | 0.9 | 0.9 | 0.00 | 0.25 | 0.25 | 99 | 1006.6 |
| 20260506111737 | 45 | 86 | 0.9 | 0.9 | 0.00 | 0.25 | 0.25 | 99 | 1006.1 |
| 20260506111235 | 45 | 69 | 0.0 | 0.0 | 0.00 | 0.25 | 0.25 | 99 | 1005.8 |
| 20260506110731 | 45 | 70 | 0.0 | 0.0 | 0.00 | 0.25 | 0.25 | 99 | 1005.5 |
| 20260506110229 | 45 | 56 | 0.0 | 0.0 | 0.00 | 0.25 | 0.25 | 99 | 1005.5 |
| 20260506105725 | 45 | 63 | 0.0 | 0.0 | 0.00 | 0.25 | 0.25 | 99 | 1005.8 |
| 20260506105223 | 45 | 69 | 0.0 | 0.0 | 0.00 | 0.25 | 0.25 | 99 | 1005.8 |
| 20260506104721 | 45 | 75 | 0.0 | 0.0 | 0.00 | 0.25 | 0.25 | 99 | 1005.8 |
| 20260506104218 | 45 | 62 | 0.0 | 0.9 | 0.00 | 0.25 | 0.25 | 99 | 1005.8 |
| 20260506103715 | 45 | 61 | 0.0 | 0.0 | 0.00 | 0.25 | 0.25 | 99 | 1005.5 |
| 20260506103212 | 45 | 61 | 0.0 | 0.0 | 0.00 | 0.25 | 0.25 | 99 | 1005.5 |
| 20260506102710 | 45 | 66 | 0.0 | 0.0 | 0.00 | 0.25 | 0.25 | 99 | 1005.5 |
| 20260506102208 | 45 | 65 | 0.0 | 0.0 | 0.00 | 0.25 | 0.25 | 99 | 1005.8 |
| 20260506101704 | 45 | 64 | 0.0 | 0.0 | 0.00 | 0.25 | 0.25 | 99 | 1005.8 |
| 20260506101201 | 45 | 75 | 0.0 | 0.0 | 0.00 | 0.25 | 0.25 | 99 | 1005.5 |
| 20260506100659 | 45 | 76 | 0.0 | 0.0 | 0.00 | 0.25 | 0.25 | 99 | 1005.5 |
| 20260506100157 | 45 | 72 | 0.0 | 0.0 | 0.00 | 0.25 | 0.25 | 99 | 1004.8 |
| 20260506095655 | 45 | 64 | 0.0 | 0.0 | 0.00 | 0.25 | 0.25 | 99 | 1004.8 |
| 20260506095151 | 45 | 63 | 0.0 | 0.0 | 0.00 | 0.25 | 0.25 | 99 | 1005.1 |
| 20260506094649 | 45 | 44 | 0.0 | 0.0 | 0.00 | 0.25 | 0.25 | 99 | 1004.8 |
| 20260506094147 | 45 | 67 | 0.0 | 0.0 | 0.00 | 0.25 | 0.25 | 99 | 1004.8 |
| 20260506093645 | 45 | 73 | 0.0 | 0.0 | 0.00 | 0.25 | 0.25 | 99 | 1004.8 |
| 20260506093142 | 44 | 65 | 0.0 | 0.0 | 0.00 | 0.25 | 0.25 | 99 | 1004.1 |
| 20260506092640 | 45 | 148 | 0.9 | 0.9 | 0.00 | 0.25 | 0.25 | 99 | 1004.1 |
| 20260506092136 | 45 | 71 | 0.0 | 0.0 | 0.00 | 0.25 | 0.25 | 99 | 1004.8 |
| 20260506091634 | 45 | 79 | 0.0 | 0.0 | 0.00 | 0.25 | 0.25 | 99 | 1005.1 |
| 20260506091132 | 45 | 57 | 0.0 | 0.9 | 0.00 | 0.25 | 0.25 | 99 | 1004.8 |
| 20260506090630 | 45 | 78 | 0.0 | 0.0 | 0.00 | 0.25 | 0.25 | 99 | 1004.8 |
| 20260506090126 | 45 | 85 | 0.0 | 0.0 | 0.00 | 0.25 | 0.25 | 99 | 1004.1 |
| 20260506085623 | 45 | 72 | 0.9 | 0.9 | 0.06 | 0.25 | 0.25 | 99 | 1004.4 |
| 20260506085119 | 45 | 62 | 0.0 | 0.0 | 0.05 | 0.24 | 0.24 | 99 | 1004.8 |
| 20260506084616 | 45 | 92 | 0.0 | 0.9 | 0.05 | 0.24 | 0.24 | 99 | 1004.8 |
| 20260506084112 | 45 | 109 | 0.0 | 0.9 | 0.04 | 0.23 | 0.23 | 99 | 1004.8 |
| 20260506083610 | 45 | 129 | 0.0 | 0.0 | 0.04 | 0.23 | 0.23 | 99 | 1004.8 |
| 20260506083107 | 46 | 62 | 0.0 | 0.0 | 0.04 | 0.23 | 0.23 | 99 | 1005.1 |
| 20260506082603 | 46 | 50 | 0.0 | 0.0 | 0.03 | 0.22 | 0.22 | 99 | 1004.8 |
| 20260506082059 | 46 | 51 | 1.7 | 2.6 | 0.02 | 0.21 | 0.21 | 99 | 1004.8 |
| 20260506081558 | 46 | 76 | 0.0 | 0.9 | 0.02 | 0.21 | 0.21 | 99 | 1004.8 |
| 20260506081054 | 46 | 62 | 0.0 | 0.9 | 0.01 | 0.20 | 0.20 | 99 | 1004.8 |
| 20260506080552 | 46 | 62 | 0.0 | 0.0 | 0.00 | 0.19 | 0.19 | 99 | 1004.8 |
| 20260506073033 | 46 | 100 | 0.0 | 0.0 | 0.02 | 0.18 | 0.18 | 99 | 1004.4 |
| 20260506072530 | 45 | 86 | 0.0 | 0.0 | 0.02 | 0.18 | 0.18 | 99 | 1004.1 |
| 20260506072027 | 45 | 160 | 1.7 | 2.6 | 0.02 | 0.18 | 0.18 | 99 | 1004.4 |
| 20260506071525 | 46 | 4 | 0.0 | 0.9 | 0.01 | 0.17 | 0.17 | 99 | 1004.4 |
| 20260506071022 | 45 | 69 | 0.0 | 0.0 | 0.01 | 0.17 | 0.17 | 99 | 1004.1 |
| 20260506070519 | 45 | 69 | 0.0 | 0.0 | 0.00 | 0.16 | 0.16 | 99 | 1004.8 |
| 20260506062457 | 46 | 77 | 0.0 | 0.0 | 0.04 | 0.09 | 0.09 | 99 | 1004.1 |
| 20260506061953 | 47 | 171 | 1.7 | 2.6 | 0.03 | 0.08 | 0.08 | 99 | 1004.4 |
| 20260506061449 | 46 | 69 | 0.0 | 0.0 | 0.03 | 0.08 | 0.08 | 99 | 1004.4 |
| 20260506060947 | 47 | 247 | 0.9 | 1.7 | 0.02 | 0.07 | 0.07 | 99 | 1004.4 |
| 20260506060445 | 47 | 294 | 0.9 | 2.6 | 0.01 | 0.06 | 0.06 | 99 | 1004.4 |
| 20260506050914 | 48 | 78 | 0.0 | 0.0 | 0.00 | 0.01 | 0.01 | 99 | 1004.8 |
| 20260506050412 | 48 | 71 | 0.0 | 0.0 | 0.00 | 0.01 | 0.01 | 99 | 1004.8 |
| 20260506044902 | 48 | 66 | 0.0 | 0.0 | 0.00 | 0.00 | 0.00 | 99 | 1004.8 |
| 20260506044400 | 48 | 66 | 0.0 | 0.0 | 0.00 | 0.00 | 0.00 | 99 | 1005.1 |
| 20260506043857 | 48 | 71 | 0.0 | 0.0 | 0.00 | 0.00 | 0.00 | 99 | 1004.8 |
| 20260506043354 | 48 | 98 | 0.0 | 0.9 | 0.00 | 0.00 | 0.00 | 99 | 1004.4 |
| 20260506042852 | 48 | 158 | 0.9 | 0.9 | 0.00 | 0.00 | 0.00 | 99 | 1004.8 |
| 20260506042351 | 48 | 57 | 0.0 | 0.0 | 0.00 | 0.00 | 0.00 | 99 | 1004.8 |
| 20260506041849 | 48 | 66 | 0.0 | 0.0 | 0.00 | 0.00 | 0.00 | 99 | 1004.8 |
| 20260506041346 | 48 | 67 | 0.0 | 0.0 | 0.00 | 0.00 | 0.00 | 99 | 1004.8 |
| 20260506040843 | 48 | 97 | 0.0 | 0.0 | 0.00 | 0.00 | 0.00 | 99 | 1004.4 |
| 20260506040340 | 49 | 77 | 0.0 | 0.0 | 0.00 | 0.00 | 0.00 | 99 | 1004.8 |
| 20260506035836 | 49 | 93 | 0.0 | 0.0 | 0.07 | 0.95 | 0.95 | 99 | 1004.8 |
| 20260506035334 | 49 | 355 | 0.9 | 0.9 | 0.07 | 0.95 | 0.95 | 99 | 1004.8 |
| 20260506034831 | 49 | 65 | 0.0 | 0.0 | 0.07 | 0.95 | 0.95 | 99 | 1004.8 |
| 20260506034328 | 49 | 100 | 0.9 | 1.7 | 0.07 | 0.95 | 0.95 | 99 | 1004.8 |
| 20260506033825 | 49 | 66 | 0.0 | 0.0 | 0.07 | 0.95 | 0.95 | 99 | 1004.8 |
| 20260506033322 | 49 | 58 | 0.0 | 0.0 | 0.06 | 0.94 | 0.94 | 99 | 1005.1 |
| 20260506032819 | 49 | 61 | 0.0 | 0.0 | 0.05 | 0.93 | 0.93 | 99 | 1005.1 |
| 20260506032316 | 49 | 82 | 0.0 | 0.0 | 0.04 | 0.92 | 0.92 | 99 | 1005.5 |
| 20260506031813 | 49 | 184 | 0.9 | 1.7 | 0.04 | 0.92 | 0.92 | 99 | 1005.1 |
| 20260506031310 | 49 | 49 | 0.0 | 0.9 | 0.03 | 0.91 | 0.91 | 99 | 1005.5 |
| 20260506030808 | 49 | 55 | 0.0 | 0.0 | 0.02 | 0.90 | 0.90 | 99 | 1005.5 |
| 20260506030306 | 49 | 137 | 0.0 | 0.9 | 0.01 | 0.89 | 0.89 | 99 | 1005.8 |
| 20260506025802 | 50 | 25 | 0.9 | 0.9 | 0.14 | 0.87 | 0.87 | 99 | 1005.8 |
| 20260506025258 | 50 | 67 | 0.0 | 0.0 | 0.12 | 0.85 | 0.85 | 99 | 1005.8 |
| 20260506024756 | 50 | 95 | 0.0 | 0.0 | 0.10 | 0.83 | 0.83 | 99 | 1005.8 |
| 20260506024252 | 50 | 128 | 0.0 | 0.9 | 0.10 | 0.83 | 0.83 | 99 | 1005.8 |
| 20260506023748 | 51 | 185 | 0.9 | 0.9 | 0.09 | 0.82 | 0.82 | 99 | 1005.5 |
| 20260506023246 | 51 | 61 | 1.7 | 1.7 | 0.08 | 0.81 | 0.81 | 99 | 1005.5 |
| 20260506022742 | 52 | 127 | 2.6 | 4.3 | 0.07 | 0.80 | 0.80 | 99 | 1005.5 |
| 20260506022240 | 52 | 66 | 0.0 | 0.0 | 0.07 | 0.80 | 0.80 | 99 | 1005.5 |
| 20260506021738 | 53 | 68 | 0.9 | 0.9 | 0.05 | 0.78 | 0.78 | 99 | 1005.1 |
| 20260506021234 | 53 | 78 | 0.0 | 0.0 | 0.03 | 0.76 | 0.76 | 99 | 1004.8 |
| 20260506020731 | 55 | 88 | 0.0 | 0.0 | 0.02 | 0.75 | 0.75 | 99 | 1005.5 |
| 20260506020229 | 57 | 61 | 0.0 | 0.0 | 0.00 | 0.73 | 0.73 | 99 | 1005.1 |
| 20260506015727 | 58 | 69 | 0.0 | 0.0 | 0.15 | 0.72 | 0.72 | 99 | 1004.8 |
| 20260506015224 | 58 | 66 | 0.0 | 0.0 | 0.13 | 0.70 | 0.70 | 99 | 1004.8 |
| 20260506014721 | 58 | 74 | 0.0 | 0.0 | 0.11 | 0.68 | 0.68 | 99 | 1005.1 |
| 20260506014217 | 58 | 67 | 0.0 | 0.0 | 0.09 | 0.66 | 0.66 | 99 | 1005.1 |
| 20260506013715 | 58 | 68 | 0.0 | 0.9 | 0.09 | 0.66 | 0.66 | 99 | 1005.1 |
| 20260506013212 | 58 | 61 | 0.0 | 0.0 | 0.07 | 0.64 | 0.64 | 99 | 1004.8 |
| 20260506012707 | 58 | 45 | 0.0 | 0.0 | 0.06 | 0.63 | 0.63 | 99 | 1004.8 |
| 20260506012205 | 59 | 77 | 0.0 | 0.0 | 0.05 | 0.62 | 0.62 | 99 | 1004.8 |
| 20260506011702 | 59 | 67 | 0.0 | 0.0 | 0.03 | 0.60 | 0.60 | 99 | 1004.8 |
| 20260506011158 | 59 | 128 | 0.0 | 0.9 | 0.02 | 0.59 | 0.59 | 99 | 1004.4 |
| 20260506010657 | 59 | 70 | 0.0 | 0.0 | 0.01 | 0.58 | 0.58 | 99 | 1004.4 |